DW6702 Weather Reports


time (UTC)temp
F
wind
direction
speed
knots
gust
knots
rain 1hr
in
rain 24hr
in
rain mn
in
humidity
%
barometer
mb
20191016122321 62 11 0.0 0.9 0.01 0.01 0.01 96 1010.3
20191016121333 62 11 0.0 0.9 0.01 0.01 0.01 96 1010.3
20191016120326 62 11 0.0 2.6 0.01 0.01 0.01 96 1010.3
20191016115322 61 357 2.6 3.5 0.01 0.01 0.01 96 1010.3
20191016114315 61 25 0.0 0.9 0.00 0.00 0.00 96 1010.6
20191016113327 61 25 0.0 0.9 0.00 0.00 0.00 95 1010.6
20191016112324 60 25 0.9 1.7 0.00 0.00 0.00 95 1010.8
20191016111316 60 25 0.0 1.7 0.00 0.00 0.00 95 1011.1
20191016110329 60 25 0.9 1.7 0.00 0.00 0.00 95 1011.2
20191016105321 60 25 0.9 1.7 0.00 0.00 0.00 95 1011.5
20191016104318 60 25 0.9 1.7 0.00 0.00 0.00 94 1011.6
20191016103331 60 24 0.0 0.9 0.00 0.00 0.00 94 1011.9
20191016102323 60 24 0.0 0.9 0.00 0.00 0.00 94 1012.2
20191016101320 60 24 0.0 0.9 0.00 0.00 0.00 94 1012.3
20191016100333 60 24 0.0 0.9 0.00 0.00 0.00 94 1012.4
20191016095325 60 24 0.0 0.9 0.00 0.00 0.00 93 1012.5
20191016094318 60 24 0.0 0.9 0.00 0.00 0.00 93 1012.6
20191016093315 60 24 0.0 0.9 0.00 0.00 0.00 93 1012.7
20191016092327 60 24 0.0 0.9 0.00 0.00 0.00 93 1012.8
20191016091320 60 24 0.9 1.7 0.00 0.00 0.00 93 1012.7
20191016090317 60 31 1.7 2.6 0.00 0.00 0.00 93 1012.8
20191016085329 60 28 0.9 1.7 0.00 0.00 0.00 92 1013.0
20191016084322 60 30 0.0 0.9 0.00 0.00 0.00 92 1013.0
20191016083315 60 30 0.0 0.9 0.00 0.00 0.00 91 1013.3
20191016082332 60 30 0.9 0.9 0.00 0.00 0.00 91 1013.4
20191016081325 60 30 0.0 0.9 0.00 0.00 0.00 90 1013.7
20191016080317 60 30 0.0 0.9 0.00 0.00 0.00 90 1013.8
20191016075335 59 28 0.0 0.9 0.00 0.00 0.00 90 1014.1
20191016074327 59 28 0.0 0.9 0.00 0.00 0.00 90 1014.3
20191016073319 59 28 0.0 0.9 0.00 0.00 0.00 90 1014.6
20191016072332 59 28 0.0 0.9 0.00 0.00 0.00 90 1014.7
20191016071329 59 28 0.9 1.7 0.00 0.00 0.00 90 1014.9
20191016070321 59 20 0.0 0.9 0.00 0.00 0.00 90 1015.2
20191016065314 59 20 0.0 0.9 0.00 0.00 0.00 89 1015.3
20191016064332 59 19 0.0 1.7 0.00 0.00 0.00 89 1015.5
20191016063324 59 20 0.9 0.9 0.00 0.00 0.00 89 1015.4
20191016062317 59 20 0.9 1.7 0.00 0.00 0.00 89 1015.8
20191016061330 59 18 0.9 1.7 0.00 0.00 0.00 89 1016.0
20191016060326 59 18 1.7 2.6 0.00 0.00 0.00 89 1016.0
20191016055319 60 24 0.9 1.7 0.00 0.00 0.00 88 1016.1
20191016054331 59 22 0.0 1.7 0.00 0.00 0.00 89 1016.6
20191016053327 59 41 0.0 0.9 0.00 0.00 0.00 90 1016.6
20191016052320 59 41 0.0 0.9 0.00 0.00 0.00 90 1016.6
20191016051334 58 41 0.9 0.9 0.00 0.00 0.00 90 1016.6
20191016050326 58 41 0.0 0.9 0.00 0.00 0.00 89 1016.5
20191016045320 58 41 0.0 0.0 0.00 0.00 0.00 89 1016.6
20191016044333 58 41 0.0 0.9 0.00 0.00 0.00 88 1016.6
20191016043326 58 41 0.0 0.0 0.00 0.00 0.00 88 1016.9
20191016042322 59 41 0.0 0.0 0.00 0.00 0.00 87 1016.9
20191016041314 59 41 0.0 0.0 0.00 0.00 0.00 86 1016.8
20191016040326 59 41 0.0 0.0 0.00 0.00 0.00 86 1016.9
20191016035319 59 41 0.0 0.0 0.00 0.00 0.00 85 1017.2
20191016034315 59 41 0.0 0.9 0.00 0.00 0.00 86 1017.1
20191016033328 59 39 0.0 0.9 0.00 0.00 0.00 87 1017.1
20191016032321 58 38 0.0 0.9 0.00 0.00 0.00 88 1017.1
20191016031317 58 38 0.0 0.9 0.00 0.00 0.00 87 1017.2
20191016030330 58 38 0.0 0.9 0.00 0.00 0.00 86 1017.4
20191016025323 59 38 0.0 0.9 0.00 0.00 0.00 86 1017.5
20191016024315 59 38 0.0 0.9 0.00 0.00 0.00 86 1017.7
20191016023332 59 38 0.0 0.9 0.00 0.00 0.00 87 1017.6
20191016022325 58 37 0.0 1.7 0.00 0.00 0.00 87 1017.5
20191016021318 59 49 0.0 0.9 0.00 0.00 0.00 86 1017.4
20191016020314 59 49 0.9 0.9 0.00 0.00 0.00 87 1017.4
20191016015327 59 49 0.0 0.0 0.00 0.00 0.00 86 1017.5
20191016014320 59 49 0.0 0.9 0.00 0.00 0.00 86 1017.6
20191016013333 59 49 0.0 0.0 0.00 0.00 0.00 86 1017.6
20191016012329 59 49 0.0 0.9 0.00 0.00 0.00 87 1017.5
20191016011321 59 49 0.0 0.9 0.00 0.00 0.00 87 1017.5
20191016010314 59 49 0.0 0.9 0.00 0.00 0.00 87 1017.6
20191016005326 59 49 0.0 0.9 0.00 0.00 0.00 86 1017.5
20191016004323 59 49 0.0 0.0 0.00 0.00 0.00 86 1017.5
20191016003316 59 49 0.0 0.0 0.00 0.00 0.00 85 1017.6
20191016002328 60 49 0.0 0.9 0.00 0.00 0.00 85 1017.9
20191016001325 60 49 0.0 0.0 0.00 0.00 0.00 83 1018.0
20191016000318 61 49 0.0 0.0 0.00 0.00 0.00 82 1017.7
20191015235330 61 49 0.0 0.0 0.00 0.00 0.00 81 1017.7
20191015234323 61 49 0.0 0.0 0.00 0.00 0.00 79 1017.7
20191015233320 62 49 0.0 0.0 0.00 0.00 0.00 79 1017.9
20191015232333 63 49 0.0 0.0 0.00 0.00 0.00 78 1018.0
20191015231325 63 49 0.0 0.0 0.00 0.00 0.00 77 1018.0
20191015230322 64 48 0.0 0.0 0.00 0.00 0.00 74 1018.0
20191015225315 65 49 0.0 0.0 0.00 0.00 0.00 72 1018.0
20191015224327 66 48 0.0 0.0 0.00 0.00 0.00 71 1018.2
20191015223319 67 48 0.0 0.0 0.00 0.00 0.00 69 1018.2
20191015222316 68 49 0.0 0.0 0.00 0.00 0.00 68 1018.2
20191015221328 69 49 0.0 0.0 0.00 0.00 0.00 66 1018.2
20191015220322 70 49 0.0 0.0 0.00 0.00 0.00 66 1018.3
20191015215319 71 49 0.0 0.0 0.00 0.00 0.00 65 1018.4
20191015214332 72 49 0.0 0.0 0.00 0.00 0.00 62 1018.3
20191015213324 73 49 0.0 0.9 0.00 0.00 0.00 59 1018.4
20191015212317 74 49 0.0 0.9 0.00 0.00 0.00 50 1018.3
20191015211314 74 49 0.0 0.9 0.00 0.00 0.00 47 1018.5
20191015210327 75 49 0.0 0.9 0.00 0.00 0.00 46 1018.6
20191015205319 75 49 0.0 0.9 0.00 0.00 0.00 43 1018.5
20191015204316 75 49 0.0 0.9 0.00 0.00 0.00 43 1018.6
20191015203328 76 49 0.0 0.9 0.00 0.00 0.00 42 1018.6
20191015202322 76 49 0.0 0.9 0.00 0.00 0.00 38 1018.8
20191015201314 77 46 0.9 1.7 0.00 0.00 0.00 39 1018.9
20191015200331 78 137 0.0 1.7 0.00 0.00 0.00 37 1018.7
20191015195323 77 158 0.9 1.7 0.00 0.00 0.00 38 1018.8
20191015194315 77 188 0.9 2.6 0.00 0.00 0.00 40 1019.0
20191015193332 77 16 0.0 2.6 0.00 0.00 0.00 41 1019.0
20191015192325 76 91 1.7 3.5 0.00 0.00 0.00 38 1019.0
20191015191317 77 167 0.9 3.5 0.00 0.00 0.00 38 1019.0
20191015190330 77 59 3.5 3.5 0.00 0.00 0.00 38 1019.0
20191015185327 77 75 0.9 3.5 0.00 0.00 0.00 39 1019.2
20191015184320 77 291 0.9 4.3 0.00 0.00 0.00 36 1019.2
20191015183331 76 89 1.7 4.3 0.00 0.00 0.00 39 1019.5
20191015182327 76 13 4.3 6.1 0.00 0.00 0.00 36 1019.5
20191015181320 75 357 3.5 5.2 0.00 0.00 0.00 37 1019.6
20191015180333 75 21 1.7 6.1 0.00 0.00 0.00 37 1019.6
20191015175326 75 18 4.3 6.1 0.00 0.00 0.00 38 1019.9
20191015174322 76 153 1.7 3.5 0.00 0.00 0.00 39 1020.1
20191015173315 76 210 0.9 5.2 0.00 0.00 0.00 40 1019.9
20191015172328 75 343 1.7 4.3 0.00 0.00 0.00 41 1020.5
20191015171325 75 345 3.5 6.1 0.00 0.00 0.00 41 1020.7
20191015170317 75 18 5.2 7.0 0.00 0.00 0.00 39 1020.7
20191015165330 74 354 2.6 7.0 0.00 0.00 0.00 43 1020.8
20191015164323 74 309 2.6 5.2 0.00 0.00 0.00 46 1020.9
20191015163319 73 352 3.5 5.2 0.00 0.00 0.00 44 1021.2
20191015162333 73 79 2.6 7.0 0.00 0.00 0.00 48 1021.2
20191015161325 72 16 2.6 7.0 0.00 0.00 0.00 48 1021.2
20191015160321 72 338 3.5 8.7 0.00 0.00 0.00 49 1021.4
20191015155314 72 357 3.5 7.0 0.00 0.00 0.00 49 1021.5
20191015154326 71 16 4.3 7.0 0.00 0.00 0.00 52 1021.4
20191015153319 70 357 3.5 7.8 0.00 0.00 0.00 53 1021.6
20191015152315 69 13 5.2 7.0 0.00 0.00 0.00 53 1021.6
20191015151327 69 21 5.2 7.0 0.00 0.00 0.00 55 1021.6
20191015150319 68 347 3.5 9.6 0.00 0.00 0.00 57 1021.8
20191015145316 67 13 5.2 8.7 0.00 0.00 0.00 59 1021.9
20191015144329 66 17 4.3 8.7 0.00 0.00 0.00 62 1021.9
20191015143321 65 10 4.3 7.8 0.00 0.00 0.00 67 1022.0
20191015142313 64 18 4.3 9.6 0.00 0.00 0.00 68 1021.9
20191015141330 63 354 4.3 7.0 0.00 0.00 0.00 69 1021.9
20191015140323 62 352 4.3 7.0 0.00 0.00 0.00 72 1022.0
20191015135315 61 18 4.3 6.1 0.00 0.00 0.00 72 1022.0
20191015134329 61 9 4.3 7.0 0.00 0.00 0.00 73 1022.0
20191015133325 60 350 3.5 6.1 0.00 0.00 0.00 73 1022.1
20191015132318 60 347 3.5 6.1 0.00 0.00 0.00 74 1022.0
20191015131330 59 347 3.5 6.1 0.00 0.00 0.00 75 1022.1
20191015130326 58 343 1.7 4.3 0.00 0.00 0.00 78 1022.2
20191015125319 57 326 0.9 4.3 0.00 0.00 0.00 81 1022.2
20191015124331 56 345 0.9 2.6 0.00 0.00 0.00 82 1022.2
20191015123324 55 295 0.9 1.7 0.00 0.00 0.00 82 1022.2